TimeCST,TemperatureF,Dew PointF,Humidity,Sea Level PressureIn,VisibilityMPH,Wind Direction,Wind SpeedMPH,Gust SpeedMPH,PrecipitationIn,Events,Conditions,WindDirDegrees,DateUTC
12:56 AM,44.1,39.9,85,30.02,10.0,NNW,3.5,-,N/A,,Clear,330,2013-02-14 06:56:00
1:56 AM,43.0,37.9,82,30.01,10.0,North,4.6,-,N/A,,Clear,360,2013-02-14 07:56:00
2:56 AM,42.1,37.0,82,30.02,10.0,NNW,3.5,-,N/A,,Clear,330,2013-02-14 08:56:00
3:56 AM,42.1,37.0,82,30.02,10.0,North,5.8,-,N/A,,Clear,350,2013-02-14 09:56:00
4:56 AM,41.0,37.0,86,30.02,10.0,Variable,4.6,-,N/A,,Clear,0,2013-02-14 10:56:00
5:56 AM,41.0,37.0,86,30.05,9.0,North,5.8,-,N/A,,Mostly Cloudy,360,2013-02-14 11:56:00
6:56 AM,41.0,36.0,82,30.07,7.0,North,9.2,-,N/A,,Mostly Cloudy,360,2013-02-14 12:56:00
7:56 AM,41.0,37.0,86,30.11,7.0,North,4.6,-,N/A,,Mostly Cloudy,10,2013-02-14 13:56:00
8:56 AM,43.0,37.9,82,30.11,8.0,North,6.9,-,N/A,,Mostly Cloudy,10,2013-02-14 14:56:00
9:56 AM,46.0,37.9,73,30.13,10.0,Variable,4.6,-,N/A,,Mostly Cloudy,0,2013-02-14 15:56:00
10:56 AM,46.9,37.0,68,30.10,10.0,NNE,5.8,-,N/A,,Mostly Cloudy,30,2013-02-14 16:56:00
11:56 AM,48.9,37.0,64,30.10,10.0,NNW,5.8,-,N/A,,Mostly Cloudy,330,2013-02-14 17:56:00
12:56 PM,50.0,37.0,61,30.07,10.0,North,6.9,-,N/A,,Mostly Cloudy,10,2013-02-14 18:56:00
1:56 PM,55.0,37.0,51,30.04,10.0,NW,5.8,-,N/A,,Scattered Clouds,320,2013-02-14 19:56:00
2:56 PM,55.9,37.0,49,30.02,10.0,North,6.9,-,N/A,,Scattered Clouds,10,2013-02-14 20:56:00
3:56 PM,57.0,37.9,49,30.01,10.0,NNW,10.4,-,N/A,,Scattered Clouds,330,2013-02-14 21:56:00
4:56 PM,55.9,37.9,51,30.01,10.0,NNW,3.5,-,N/A,,Partly Cloudy,340,2013-02-14 22:56:00
5:56 PM,48.0,39.9,74,30.04,10.0,Calm,Calm,-,N/A,,Partly Cloudy,0,2013-02-14 23:56:00
6:56 PM,45.0,39.9,82,30.05,10.0,Calm,Calm,-,N/A,,Clear,0,2013-02-15 00:56:00
7:56 PM,43.0,39.0,86,30.06,9.0,Calm,Calm,-,N/A,,Clear,0,2013-02-15 01:56:00
8:56 PM,39.9,37.9,93,30.07,10.0,Calm,Calm,-,N/A,,Clear,0,2013-02-15 02:56:00
9:56 PM,39.9,37.0,89,30.08,9.0,Calm,Calm,-,N/A,,Clear,0,2013-02-15 03:56:00
10:56 PM,39.0,35.1,86,30.06,10.0,Calm,Calm,-,N/A,,Clear,0,2013-02-15 04:56:00
11:56 PM,37.9,35.1,89,30.06,8.0,Calm,Calm,-,N/A,,Clear,0,2013-02-15 05:56:00